Weather History for Thief River Falls, MN

Change the Weather History Date:

Monday, December 24, 2012

  Actual Average Record
Temperature  
Mean Temperature -8 °F -  
Max Temperature -2 °F 14 °F 37 °F (2011)
Min Temperature -14 °F 1 °F -27 °F (1996)
Degree Days  
Heating Degree Days 73    
Moisture  
Dew Point -12 °F    
Average Humidity 84    
Maximum Humidity 100    
Minimum Humidity 70    
Precipitation  
Precipitation 0.00 in - - ()
Sea Level Pressure  
Sea Level Pressure 30.25 in    
Wind  
Wind Speed 10 mph (NW)    
Max Wind Speed 15 mph    
Max Gust Speed -    
Visibility 9 miles    
Events      
Averages and records for this station are not official NWS values.
T = Trace of Precipitation, MM = Missing Value Source: NWS Daily Summary

Daily Weather History Graph

Daily Weather History Graph

Search for Another Location

Airport:

Trip Planner

Search our weather history database for the weather conditions in past years. The results will help you decide how hot, cold, wet, or windy it might be!

Date:

Astronomy

Dec. 24, 2012 Rise Set
Actual Time 8:13 AM CST 4:35 PM CST
Civil Twilight 7:37 AM CST 5:12 PM CST
Nautical Twilight 6:57 AM CST 5:52 PM CST
Astronomical Twilight 6:19 AM CST 6:29 PM CST
Moon 2:09 PM CST (12/24) 4:46 AM CST (12/24)
Length of Visible Light 9h 35m
Length of Day
8h 22m
Waxing Gibbous, 88% of the Moon is Illuminated
Dec 24
Waxing Gibbous
Dec 28
Full
Jan 4
Last Quarter
Jan 11
New
Jan 18
First Quarter

Hourly Weather History & Observations

Time (CST) Temp. Windchill Dew Point Humidity Pressure Visibility Wind Dir Wind Speed Gust Speed Precip Events Conditions
12:15 AM -2.2 °F -18.9 °F -7.6 °F 78% 30.16 in 10.0 mi NNW 10.4 mph - N/A   Clear
12:35 AM -2.2 °F -19.9 °F -7.6 °F 78% 30.16 in 10.0 mi North 11.5 mph - N/A   Clear
12:55 AM -2.2 °F -22.2 °F -7.6 °F 78% 30.16 in 10.0 mi North 15.0 mph - N/A   Mostly Cloudy
1:15 AM -2.2 °F -19.9 °F -7.6 °F 78% 30.16 in 10.0 mi North 11.5 mph - N/A   Mostly Cloudy
1:35 AM -4.0 °F -23.0 °F -11.2 °F 71% 30.16 in 10.0 mi NNW 12.7 mph - N/A   Partly Cloudy
1:55 AM -5.8 °F -24.4 °F -9.4 °F 84% 30.17 in 10.0 mi North 11.5 mph - N/A   Clear
2:15 AM -5.8 °F -23.4 °F -9.4 °F 84% 30.16 in 10.0 mi North 10.4 mph - N/A   Clear
2:35 AM -5.8 °F -22.4 °F -9.4 °F 84% 30.17 in 10.0 mi North 9.2 mph - N/A   Clear
2:55 AM -5.8 °F -21.2 °F -9.4 °F 84% 30.17 in 10.0 mi NNW 8.1 mph - N/A   Clear
3:15 AM -5.8 °F -21.2 °F -9.4 °F 84% 30.18 in 10.0 mi NNW 8.1 mph - N/A   Clear
3:35 AM -5.8 °F -21.2 °F -9.4 °F 84% 30.18 in 10.0 mi NNW 8.1 mph - N/A   Clear
3:55 AM -5.8 °F -23.4 °F -9.4 °F 84% 30.17 in 10.0 mi North 10.4 mph - N/A   Clear
4:15 AM -5.8 °F -22.4 °F -9.4 °F 84% 30.18 in 10.0 mi NNW 9.2 mph - N/A   Partly Cloudy
4:35 AM -5.8 °F -23.4 °F -9.4 °F 84% 30.18 in 10.0 mi NNW 10.4 mph - N/A   Partly Cloudy
4:55 AM -5.8 °F -22.4 °F -9.4 °F 84% 30.18 in 10.0 mi NNW 9.2 mph - N/A   Clear
5:15 AM -7.6 °F -26.6 °F -11.2 °F 84% 30.18 in 10.0 mi North 11.5 mph - N/A   Mostly Cloudy
5:35 AM -7.6 °F -25.7 °F -9.4 °F 92% 30.19 in 10.0 mi North 10.4 mph - N/A   Overcast
5:55 AM -7.6 °F -25.7 °F -7.6 °F 100% 30.19 in 10.0 mi NNW 10.4 mph - N/A   Overcast
6:15 AM -5.8 °F -23.4 °F -7.6 °F 92% 30.19 in 10.0 mi NNW 10.4 mph - N/A   Overcast
6:35 AM -5.8 °F -23.4 °F -9.4 °F 84% 30.19 in 8.0 mi NNW 10.4 mph - N/A   Overcast
6:55 AM -5.8 °F -22.4 °F -7.6 °F 92% 30.19 in 10.0 mi NNW 9.2 mph - N/A   Overcast
7:15 AM -5.8 °F -22.4 °F -7.6 °F 92% 30.18 in 10.0 mi NNW 9.2 mph - N/A   Overcast
7:35 AM -7.6 °F -23.4 °F -9.4 °F 92% 30.18 in 10.0 mi NNW 8.1 mph - N/A   Mostly Cloudy
7:55 AM -7.6 °F -23.4 °F -11.2 °F 84% 30.19 in 8.0 mi NW 8.1 mph - N/A   Clear
8:15 AM -7.6 °F -23.4 °F -11.2 °F 84% 30.19 in 10.0 mi NNW 8.1 mph - N/A   Clear
8:35 AM -9.4 °F -27.9 °F -11.2 °F 92% 30.20 in 10.0 mi NW 10.4 mph - N/A   Clear
8:55 AM -9.4 °F -27.9 °F -13.0 °F 84% 30.21 in 10.0 mi NW 10.4 mph - N/A   Clear
9:15 AM -9.4 °F -29.8 °F -14.8 °F 77% 30.21 in 10.0 mi NNW 12.7 mph - N/A   Clear
9:35 AM -9.4 °F -27.9 °F -13.0 °F 84% 30.22 in 10.0 mi NNW 10.4 mph - N/A   Clear
9:55 AM -9.4 °F -29.8 °F -13.0 °F 84% 30.23 in 9.0 mi NW 12.7 mph - N/A   Clear
10:15 AM -9.4 °F -29.8 °F -13.0 °F 84% 30.25 in 5.0 mi NW 12.7 mph - N/A   Clear
10:35 AM -9.4 °F -29.8 °F -13.0 °F 84% 30.26 in 5.0 mi NW 12.7 mph - N/A   Mostly Cloudy
10:55 AM -9.4 °F -28.9 °F -11.2 °F 92% 30.26 in 5.0 mi NW 11.5 mph - N/A   Mostly Cloudy
11:15 AM -7.6 °F -25.7 °F -11.2 °F 84% 30.26 in 6.0 mi NW 10.4 mph - N/A   Partly Cloudy
11:35 AM -7.6 °F -25.7 °F -13.0 °F 77% 30.26 in 4.0 mi NNW 10.4 mph - N/A   Clear
11:55 AM -7.6 °F -25.7 °F -11.2 °F 84% 30.26 in 7.0 mi NNW 10.4 mph - N/A   Partly Cloudy
12:15 PM -7.6 °F -23.4 °F -13.0 °F 77% 30.26 in 5.0 mi NW 8.1 mph - N/A   Clear
12:35 PM -7.6 °F -24.6 °F -9.4 °F 92% 30.25 in 10.0 mi NW 9.2 mph - N/A   Clear
12:55 PM -7.6 °F -24.6 °F -11.2 °F 84% 30.25 in 6.0 mi WNW 9.2 mph - N/A   Partly Cloudy
1:15 PM -5.8 °F -22.4 °F -9.4 °F 84% 30.25 in 4.0 mi NW 9.2 mph - N/A   Partly Cloudy
1:35 PM -5.8 °F -24.4 °F -11.2 °F 77% 30.25 in 9.0 mi NW 11.5 mph - N/A   Scattered Clouds
1:55 PM -7.6 °F -26.6 °F -11.2 °F 84% 30.25 in 4.0 mi NW 11.5 mph - N/A   Scattered Clouds
2:15 PM -7.6 °F -26.6 °F -11.2 °F 84% 30.25 in 10.0 mi NW 11.5 mph - N/A   Clear
2:35 PM -7.6 °F -27.5 °F -11.2 °F 84% 30.26 in 8.0 mi NW 12.7 mph - N/A   Clear
2:55 PM -7.6 °F -27.5 °F -11.2 °F 84% 30.25 in 10.0 mi NW 12.7 mph - N/A   Clear
3:15 PM -7.6 °F -26.6 °F -13.0 °F 77% 30.26 in 10.0 mi NW 11.5 mph - N/A   Clear
3:35 PM -7.6 °F -26.6 °F -11.2 °F 84% 30.26 in 10.0 mi NW 11.5 mph - N/A   Clear
3:55 PM -7.6 °F -24.6 °F -13.0 °F 77% 30.26 in 9.0 mi NW 9.2 mph - N/A   Clear
4:15 PM -7.6 °F -26.6 °F -11.2 °F 84% 30.26 in 9.0 mi NW 11.5 mph - N/A   Partly Cloudy
4:35 PM -9.4 °F -26.8 °F -14.8 °F 77% 30.27 in 10.0 mi NW 9.2 mph - N/A   Clear
4:55 PM -9.4 °F -24.3 °F -14.8 °F 77% 30.27 in 10.0 mi WNW 6.9 mph - N/A   Clear
5:15 PM -9.4 °F -24.3 °F -13.0 °F 84% 30.28 in 10.0 mi NW 6.9 mph - N/A   Clear
5:35 PM -9.4 °F -27.9 °F -14.8 °F 77% 30.28 in 10.0 mi NW 10.4 mph - N/A   Mostly Cloudy
5:55 PM -9.4 °F -26.8 °F -13.0 °F 84% 30.29 in 10.0 mi NW 9.2 mph - N/A   Mostly Cloudy
6:15 PM -9.4 °F -26.8 °F -14.8 °F 77% 30.30 in 10.0 mi WNW 9.2 mph - N/A   Mostly Cloudy
6:35 PM -9.4 °F -25.6 °F -13.0 °F 84% 30.31 in 10.0 mi WNW 8.1 mph - N/A   Mostly Cloudy
6:55 PM -11.2 °F -27.8 °F -14.8 °F 84% 30.31 in 9.0 mi WNW 8.1 mph - N/A   Partly Cloudy
7:15 PM -11.2 °F -29.0 °F -13.0 °F 92% 30.31 in 10.0 mi NW 9.2 mph - N/A   Clear
7:35 PM -11.2 °F -29.0 °F -14.8 °F 84% 30.31 in 8.0 mi NW 9.2 mph - N/A   Clear
7:55 PM -11.2 °F -27.8 °F -14.8 °F 84% 30.32 in 10.0 mi NW 8.1 mph - N/A   Clear
8:15 PM -11.2 °F -26.4 °F -14.8 °F 84% 30.32 in 10.0 mi NW 6.9 mph - N/A   Clear
8:35 PM -11.2 °F -24.8 °F -14.8 °F 84% 30.32 in 10.0 mi WNW 5.8 mph - N/A   Clear
8:55 PM -11.2 °F -26.4 °F -14.8 °F 84% 30.33 in 10.0 mi NW 6.9 mph - N/A   Partly Cloudy
9:15 PM -11.2 °F -26.4 °F -14.8 °F 84% 30.33 in 10.0 mi NW 6.9 mph - N/A   Clear
9:35 PM -11.2 °F -26.4 °F -14.8 °F 84% 30.34 in 10.0 mi NW 6.9 mph - N/A   Clear
9:55 PM -11.2 °F -20.6 °F -14.8 °F 84% 30.34 in 10.0 mi WNW 3.5 mph - N/A   Clear
10:15 PM -11.2 °F -23.0 °F -14.8 °F 84% 30.35 in 10.0 mi West 4.6 mph - N/A   Clear
10:35 PM -11.2 °F -20.6 °F -16.6 °F 77% 30.35 in 10.0 mi West 3.5 mph - N/A   Clear
10:55 PM -13.0 °F -25.1 °F -14.8 °F 92% 30.36 in 10.0 mi WSW 4.6 mph - N/A   Clear
11:15 PM -14.8 °F -29.1 °F -22.0 °F 70% 30.36 in 10.0 mi West 5.8 mph - N/A   Clear
11:35 PM -14.8 °F -27.2 °F -14.8 °F 100% 30.36 in 10.0 mi West 4.6 mph - N/A   Clear
11:55 PM -13.0 °F -22.7 °F -18.4 °F 77% 30.36 in 10.0 mi West 3.5 mph - N/A   Clear